Preview of NWS' New Version of Forecast
This preview is not operational and should not be used for support decisions.

Regional Weather Roundup (RWR)

Issued by National Weather Service (NWS)

                            
000
ASUS46 KSEW 171910
RWRWA 

WASHINGTON REGIONAL WEATHER ROUNDUP
NATIONAL WEATHER SERVICE SEATTLE WA
1200 PM PDT WED APR 17 2019

NOTE:"FAIR" INDICATES FEW OR NO CLOUDS BELOW 12,000 FEET WITH NO 
SIGNIFICANT WEATHER AND/OR OBSTRUCTIONS TO VISIBILITY.

WAZ507-509-555>559-172000-
SEATTLE, TACOMA, EVERETT, AND VICINITY
  
CITY           SKY/WX    TMP DP  RH WIND       PRES   REMARKS
EVERETT        CLOUDY    52  45  77 S12       30.31R                  
BOEING FIELD   PTSUNNY   57  46  66 S13       30.31R                  
RENTON         CLOUDY    58  46  64 S10G17    30.31R                  
SEATAC AIRPORT PTSUNNY   56  46  69 SW15G23   30.31R                  
JBLM-MCCHORD   CLOUDY    54  54 100 S10       30.33R                  
PUYALLUP       CLOUDY    55  48  76 SW8G15    30.33R                  
BREMERTON      CLOUDY    54  50  86 S14G23    30.30R                  
JBLM-FT LEWIS  CLOUDY    54  54  98 S10       30.33R                  
TACOMA NARROWS CLOUDY    52  46  80 S9        30.33R                  
$$
 
WAZ001-503-506-510-514-515-172000-
NORTH INTERIOR
  
CITY           SKY/WX    TMP DP  RH WIND       PRES   REMARKS
BELLINGHAM     FAIR      55  45  68 S13       30.28R                  
FRIDAY HARBOR  PTSUNNY   55  45  68 SE8       30.30R                  
EASTSOUND      FAIR      55  46  71 S12       30.27S                  
PORT ANGELES   FAIR      51  45  79 N5        30.28R                  
EDIZ HOOK      FAIR      51  47  87 NW3       30.29R                  
PORT TOWNSEND  CLOUDY    55  48  76 E10G16    30.27S                  
NAS WHIDBEY    NOT AVBL                                               
ARLINGTON      CLOUDY    53  47  79 SE13      30.32R                  
BURLINGTON     MOSUNNY   61  46  59 SE15      30.30R                  
$$
 
WAZ020-022-039-040-504-511-512-172000-
SOUTHWEST INTERIOR
  
CITY           SKY/WX    TMP DP  RH WIND       PRES   REMARKS
SHELTON        LGT RAIN  55  49  80 SW10      30.29R                  
OLYMPIA        CLOUDY    51  49  92 S6        30.33R FOG              
CHEHALIS       CLOUDY    57  48  72 S8        30.33S                  
KELSO          CLOUDY    55  48  77 S10       30.36R                  
VANCOUVER      CLOUDY    56  46  69 SE5       30.36R                  
SCAPPOOSE, OR  CLOUDY    57  48  72 SE8       30.35R                  
PORTLAND, OR   CLOUDY    57  46  66 S9        30.37R                  
$$
 
WAZ021-516-517-172000-
WASHINGTON COAST
  
CITY           SKY/WX    TMP DP  RH WIND       PRES   REMARKS
FORKS          CLOUDY    52  51  97 S10G17    30.27R                  
HOQUIAM        CLOUDY    53  53 100 SW13      30.32R FOG              
ASTORIA, OR    PTSUNNY   54  49  83 S12       30.33R                  
$$
 
WAZ019-023-024-040-567>569-172000-
CASCADE MOUNTAINS AND COLUMBIA GORGE
  
CITY           SKY/WX    TMP DP  RH WIND       PRES   REMARKS
STAMPEDE PASS  NOT AVBL                                               
TROUTDALE, OR  CLOUDY    57  46  66 VRB6      30.37R                  
HOOD RIVER, OR FAIR      57  46  67 MISG      30.33S                  
THE DALLES, OR FAIR      61  45  55 N16       30.30R                  
$$

WAZ026-027-041>044-520-521-172000-
EAST SLOPES
  
CITY           SKY/WX    TMP DP  RH WIND       PRES   REMARKS
OMAK           FAIR      63  29  27 SE8G17    30.12R                  
WENATCHEE      FAIR      60  34  37 NW12G21   30.17F                  
ELLENSBURG     FAIR      58  39  49 NW18      30.24R                  
YAKIMA         FAIR      63  37  38 VRB7      30.24S                  
SUNNYSIDE ARPT FAIR      61  43  51 W7        30.24R                  
YAKIMA TC      FAIR      59  36  43 CALM      30.23R                  
$$

WAZ028-034-035-172000-
COLUMBIA BASIN
  
CITY           SKY/WX    TMP DP  RH WIND       PRES   REMARKS
EPHRATA        FAIR      62  35  36 W9G18     30.18R                  
MOSES LAKE     FAIR      64  37  36 W13       30.20R                  
PASCO          FAIR      68  40  35 W15       30.24S                  
RICHLAND ARPT  FAIR      65  41  40 W10G18    30.24S                  
HERMISTON, OR  FAIR      64  41  42 W22G30    30.26R                  
$$

WAZ036>038-172000-
NORTHEAST WASHINGTON
  
CITY           SKY/WX    TMP DP  RH WIND       PRES   REMARKS
SPOKANE GEIGER FAIR      56  35  45 SW23G30   30.16R                  
SPOKANE FELTS  PTSUNNY   58  36  43 W15G29    30.17R                  
FAIRCHILD AFB  MOSUNNY   56  38  51 SW20G26   30.15R                  
COEURDALENE,ID CLOUDY    56  38  50 SW18      30.15F                  
DEER PARK      FAIR      59  34  39 W16       30.14S                  
$$

WAZ029>033-172000-
SOUTHEAST WASHINGTON
  
CITY           SKY/WX    TMP DP  RH WIND       PRES   REMARKS
PULLMAN        PTSUNNY   53  41  63 W18G25    30.23S                  
LEWISTON, ID   CLOUDY    59  39  47 E6        30.22R                  
WALLA WALLA    PTSUNNY   58  42  55 SW16      30.26R                  
PENDLETON, OR  FAIR      59  42  53 MISG      30.27R                  
$$